TimeCST,TemperatureF,Dew PointF,Humidity,Sea Level PressureIn,VisibilityMPH,Wind Direction,Wind SpeedMPH,Gust SpeedMPH,PrecipitationIn,Events,Conditions,WindDirDegrees,DateUTC
12:15 AM,35.1,32.0,89,30.02,10.0,West,13.8,20.7,N/A,,Overcast,280,2012-11-12 06:15:00
12:35 AM,34.7,30.9,86,30.02,10.0,West,13.8,21.9,N/A,,Overcast,280,2012-11-12 06:35:00
12:55 AM,34.3,30.9,87,30.00,10.0,WNW,16.1,19.6,N/A,,Overcast,290,2012-11-12 06:55:00
1:15 AM,33.8,30.2,87,30.02,10.0,West,13.8,21.9,N/A,,Overcast,270,2012-11-12 07:15:00
1:35 AM,33.8,28.8,82,30.03,10.0,WNW,13.8,28.8,N/A,,Overcast,290,2012-11-12 07:35:00
1:55 AM,33.4,28.4,82,30.03,10.0,West,13.8,23.0,N/A,,Overcast,280,2012-11-12 07:55:00
2:15 AM,32.7,27.1,80,30.04,10.0,West,17.3,24.2,N/A,,Overcast,280,2012-11-12 08:15:00
2:35 AM,32.4,27.1,81,30.06,10.0,WNW,16.1,-,N/A,,Overcast,290,2012-11-12 08:35:00
2:55 AM,32.0,25.9,78,30.06,10.0,West,16.1,21.9,N/A,,Overcast,280,2012-11-12 08:55:00
3:15 AM,31.6,25.7,79,30.05,10.0,WNW,13.8,23.0,N/A,,Overcast,290,2012-11-12 09:15:00
3:35 AM,31.1,24.6,77,30.06,10.0,WNW,16.1,26.5,N/A,,Overcast,290,2012-11-12 09:35:00
3:55 AM,30.4,23.9,77,30.07,10.0,WNW,11.5,-,N/A,,Overcast,290,2012-11-12 09:55:00
4:15 AM,30.2,23.7,77,30.07,10.0,WNW,13.8,21.9,N/A,,Overcast,290,2012-11-12 10:15:00
4:35 AM,30.2,24.4,79,30.09,10.0,West,24.2,27.6,N/A,,Overcast,270,2012-11-12 10:35:00
4:55 AM,28.8,22.1,76,30.09,10.0,West,15.0,25.3,N/A,,Mostly Cloudy,280,2012-11-12 10:55:00
5:15 AM,28.4,22.1,77,30.09,10.0,West,15.0,23.0,N/A,,Scattered Clouds,280,2012-11-12 11:15:00
5:35 AM,28.0,22.3,79,30.10,10.0,West,15.0,20.7,N/A,,Scattered Clouds,270,2012-11-12 11:35:00
5:55 AM,27.5,20.3,74,30.11,10.0,West,18.4,25.3,N/A,,Scattered Clouds,280,2012-11-12 11:55:00
6:15 AM,27.1,21.2,78,30.12,10.0,West,13.8,-,N/A,,Clear,270,2012-11-12 12:15:00
6:35 AM,27.1,21.9,81,30.13,10.0,West,12.7,19.6,N/A,,Clear,260,2012-11-12 12:35:00
6:55 AM,26.6,21.7,82,30.14,10.0,West,10.4,-,N/A,,Clear,260,2012-11-12 12:55:00
7:15 AM,26.6,20.8,79,30.15,10.0,West,19.6,26.5,N/A,,Clear,270,2012-11-12 13:15:00
7:35 AM,26.8,19.8,75,30.15,10.0,West,19.6,28.8,N/A,,Clear,270,2012-11-12 13:35:00
7:55 AM,27.1,19.4,73,30.16,10.0,West,19.6,27.6,N/A,,Clear,270,2012-11-12 13:55:00
8:15 AM,27.7,19.8,72,30.17,10.0,West,17.3,24.2,N/A,,Clear,260,2012-11-12 14:15:00
8:35 AM,28.0,19.8,71,30.17,10.0,West,20.7,27.6,N/A,,Clear,270,2012-11-12 14:35:00
8:55 AM,28.8,20.3,71,30.17,10.0,West,18.4,28.8,N/A,,Clear,260,2012-11-12 14:55:00
9:15 AM,29.1,20.1,69,30.17,10.0,West,20.7,27.6,N/A,,Clear,280,2012-11-12 15:15:00
9:35 AM,30.2,20.7,68,30.17,10.0,West,19.6,24.2,N/A,,Clear,270,2012-11-12 15:35:00
9:55 AM,30.6,20.5,66,30.18,10.0,West,24.2,27.6,N/A,,Clear,260,2012-11-12 15:55:00
10:15 AM,31.3,21.0,66,30.18,10.0,West,19.6,-,N/A,,Clear,260,2012-11-12 16:15:00
10:35 AM,32.0,21.7,66,30.18,10.0,West,23.0,27.6,N/A,,Scattered Clouds,260,2012-11-12 16:35:00
10:55 AM,32.0,21.6,65,30.18,10.0,West,17.3,28.8,N/A,,Clear,270,2012-11-12 16:55:00
11:15 AM,32.7,22.3,65,30.18,10.0,West,16.1,-,N/A,,Scattered Clouds,280,2012-11-12 17:15:00
11:35 AM,33.1,22.1,64,30.17,10.0,WSW,20.7,26.5,N/A,,Scattered Clouds,250,2012-11-12 17:35:00
11:55 AM,34.3,23.2,64,30.17,10.0,WSW,18.4,21.9,N/A,,Scattered Clouds,250,2012-11-12 17:55:00
12:15 PM,34.5,22.8,62,30.17,10.0,WSW,21.9,26.5,N/A,,Scattered Clouds,250,2012-11-12 18:15:00
12:35 PM,34.3,22.6,62,30.17,10.0,West,18.4,29.9,N/A,,Scattered Clouds,260,2012-11-12 18:35:00
12:55 PM,35.1,22.6,61,30.16,10.0,West,24.2,29.9,N/A,,Clear,260,2012-11-12 18:55:00
1:15 PM,35.8,22.8,59,30.16,10.0,West,23.0,29.9,N/A,,Clear,260,2012-11-12 19:15:00
1:35 PM,34.3,21.4,59,30.17,10.0,WSW,25.3,36.8,N/A,,Mostly Cloudy,250,2012-11-12 19:35:00
1:55 PM,36.0,22.3,58,30.16,10.0,WSW,25.3,29.9,N/A,,Scattered Clouds,250,2012-11-12 19:55:00
2:15 PM,36.9,22.6,56,30.17,10.0,West,28.8,32.2,N/A,,Mostly Cloudy,260,2012-11-12 20:15:00
2:35 PM,36.5,23.0,58,30.18,10.0,West,21.9,32.2,N/A,,Mostly Cloudy,270,2012-11-12 20:35:00
2:55 PM,36.5,23.0,58,30.18,10.0,WSW,24.2,31.1,N/A,,Mostly Cloudy,250,2012-11-12 20:55:00
3:15 PM,35.8,22.3,58,30.19,10.0,WSW,21.9,29.9,N/A,,Mostly Cloudy,250,2012-11-12 21:15:00
3:35 PM,35.6,23.0,60,30.20,10.0,West,17.3,25.3,N/A,,Overcast,260,2012-11-12 21:35:00
3:55 PM,35.6,22.1,58,30.21,10.0,West,20.7,33.4,N/A,,Overcast,260,2012-11-12 21:55:00
4:15 PM,35.6,22.8,60,30.21,10.0,West,18.4,27.6,N/A,,Overcast,260,2012-11-12 22:15:00
4:35 PM,35.6,22.8,60,30.23,10.0,West,21.9,28.8,N/A,,Overcast,270,2012-11-12 22:35:00
4:55 PM,35.6,23.0,60,30.24,10.0,West,20.7,26.5,N/A,,Overcast,260,2012-11-12 22:55:00
5:15 PM,35.1,24.3,65,30.25,10.0,West,11.5,-,N/A,,Overcast,270,2012-11-12 23:15:00
5:35 PM,35.1,23.9,64,30.26,10.0,West,18.4,23.0,N/A,,Overcast,270,2012-11-12 23:35:00
5:55 PM,35.1,23.9,64,30.27,10.0,West,19.6,24.2,N/A,,Overcast,270,2012-11-12 23:55:00
6:15 PM,35.1,23.9,64,30.27,10.0,West,15.0,21.9,N/A,,Overcast,270,2012-11-13 00:15:00
6:35 PM,35.1,23.9,64,30.28,10.0,West,13.8,20.7,N/A,,Overcast,270,2012-11-13 00:35:00
6:55 PM,34.7,23.9,65,30.28,10.0,West,11.5,-,N/A,,Overcast,260,2012-11-13 00:55:00
7:15 PM,35.6,24.8,65,30.28,10.0,West,12.7,-,N/A,,Overcast,260,2012-11-13 01:15:00
7:35 PM,34.7,24.6,67,30.29,10.0,West,12.7,-,N/A,,Overcast,260,2012-11-13 01:35:00
7:55 PM,35.1,24.6,66,30.29,10.0,West,12.7,-,N/A,,Overcast,260,2012-11-13 01:55:00
8:15 PM,34.9,25.0,67,30.30,10.0,West,10.4,17.3,N/A,,Overcast,260,2012-11-13 02:15:00
8:35 PM,35.1,24.4,65,30.30,10.0,West,15.0,-,N/A,,Overcast,260,2012-11-13 02:35:00
8:55 PM,34.9,24.4,66,30.30,10.0,West,15.0,19.6,N/A,,Overcast,260,2012-11-13 02:55:00
9:15 PM,34.3,24.8,68,30.31,10.0,West,13.8,20.7,N/A,,Scattered Clouds,270,2012-11-13 03:15:00
9:35 PM,33.1,24.3,70,30.32,10.0,West,13.8,-,N/A,,Clear,280,2012-11-13 03:35:00
9:55 PM,32.7,24.3,71,30.33,10.0,West,11.5,-,N/A,,Clear,280,2012-11-13 03:55:00
10:15 PM,32.5,23.9,70,30.35,10.0,West,11.5,18.4,N/A,,Clear,280,2012-11-13 04:15:00
10:35 PM,32.0,23.9,72,30.35,10.0,West,11.5,-,N/A,,Clear,280,2012-11-13 04:35:00
10:55 PM,32.0,23.7,71,30.36,10.0,West,9.2,-,N/A,,Clear,280,2012-11-13 04:55:00
11:15 PM,31.6,23.7,73,30.36,10.0,West,11.5,-,N/A,,Clear,280,2012-11-13 05:15:00
11:35 PM,31.1,23.5,74,30.36,10.0,West,9.2,-,N/A,,Clear,280,2012-11-13 05:35:00
11:55 PM,30.6,23.7,76,30.37,10.0,WNW,8.1,-,N/A,,Clear,290,2012-11-13 05:55:00